Regional Weather Roundup
Issued by NWS

Home | Current Version | Previous Version | Graphics & Text | Print | Product List | Glossary On
Versions: 1 2 3 4 5 6 7 8 9 10 11 12 13 14 15 16 17 18 19 20 21 22 23 24 25 26 27 28 29 30 31 32 33 34 35 36 37 38 39 40 41 42 43 44 45 46 47 48 49 50
000
ASUS43 KMPX 030801
RWRMN
WEATHER ROUNDUP FOR MINNESOTA
NATIONAL WEATHER SERVICE TWIN CITIES/CHANHASSEN MN
200 AM CST SAT DEC 03 2016


NOTE: "FAIR" INDICATES FEW OR NO CLOUDS BELOW 12,000 FEET WITH NO
SIGNIFICANT WEATHER AND/OR OBSTRUCTIONS TO VISIBILITY. N/A MEANS
CURRENT SKY AND/OR WEATHER CONDITIONS ARE NOT AVAILABLE.

MNZ060>063-068>070-030900-
   Twin Cities Metro

CITY           SKY/WX    TMP DP  RH WIND       PRES   REMARKS
TWIN CITIES    CLOUDY    30  22  72 SW7       30.30  WCI  23
ST PAUL        CLOUDY    30  25  81 SW7       30.31  WCI  23
CRYSTAL        CLOUDY    30  22  72 W7        30.28  WCI  23
BLAINE         CLOUDY    30  27  86 NW3       30.29S
LAKEVILLE        N/A     28  21  74 W5        30.29F WCI  23
EDEN PRAIRIE   CLOUDY    30  21  69 W7        30.28  WCI  23
SOUTH ST PAUL  CLOUDY    30  24  78 SW7       30.30S WCI  24
LAKE ELMO      CLOUDY    30  28  93 W5        30.29F WCI  25
$$
MNZ001>005-007-008-013>017-022>024-027-028-030900-
   Northwest Minnesota

CITY           SKY/WX    TMP DP  RH WIND       PRES   REMARKS
BEMIDJI        CLOUDY    25  19  76 CALM      30.24F
HALLOCK        CLOUDY    30  27  86 S7        30.21F WCI  23
ROSEAU         CLOUDY    27  21  80 SE6       30.22F WCI  20
WARROAD        CLOUDY    25  19  80 CALM      30.23S
CROOKSTON      CLOUDY    28  21  74 SW7       30.25F WCI  21
FOSSTON        CLOUDY    25  18  74 S5        30.24S WCI  19
DETROIT LAKES  CLOUDY    27  21  80 SW6       30.26R WCI  20
MOORHEAD       CLOUDY    27  19  74 SW7       30.28S WCI  19
PARK RAPIDS    CLOUDY    25  16  68 SW7       30.24  WCI  17
$$
MNZ006-009>011-018-025>026-030900-
   North Central Minnesota

CITY           SKY/WX    TMP DP  RH WIND       PRES   REMARKS
BAUDETTE       CLOUDY    24  20  84 S5        30.23F WCI  18
FLAG ISLAND    CLOUDY    25  21  86 W6        30.21F WCI  18
WASKISH        CLOUDY    25  21  86 CALM      30.24S
BIG FORK       CLOUDY    25  19  80 SW3       30.24F
LONGVILLE      CLOUDY    25  19  80 CALM      30.25F
CRANE LAKE     CLOUDY    21  19  93 CALM      30.28R
ORR            CLOUDY    21  19  93 CALM      30.22S
COOK           CLOUDY    21  21 100 CALM      30.24F
$$
MNZ012-019>021-037-030900-
   Northeast Minnesota

CITY           SKY/WX    TMP DP  RH WIND       PRES   REMARKS
ELY            CLOUDY    25  23  93 W6        30.23S WCI  18
HIBBING        CLOUDY    24  21  88 VRB5      30.24  WCI  18
EVELETH        CLOUDY    25  23  93 NW5       30.25S WCI  19
DULUTH HARBOR  CLOUDY    30  27  86 W7        30.29S WCI  23
TWO HARBORS    CLOUDY    30  25  80 CALM      30.23S
SILVER BAY     CLOUDY    28  25  86 CALM      30.23S
GRAND MARAIS     N/A     32  25  75 VRB3      30.25R
G MARAIS ARPRT CLOUDY    23  19  86 CALM      30.19S
$$
MNZ029>031-032-039>041-046>048-054>057-064-030900-
   West Central Minnesota

CITY           SKY/WX    TMP DP  RH WIND       PRES   REMARKS
FERGUS FALLS   CLOUDY    25  18  74 SW5       30.32S WCI  19
MORRIS         CLOUDY    27  19  74 W5        30.29S WCI  21
ALEXANDRIA     CLOUDY    25  18  74 SW3       30.28
ELBOW LAKE     CLOUDY    25  20  82 CALM      30.28F
WADENA         CLOUDY    25  18  74 CALM      30.25F
GLENWOOD       CLOUDY    25  19  80 CALM      30.29S
APPLETON       CLOUDY    27  19  74 CALM      30.30F
BENSON         CLOUDY    27  19  74 NW3       30.30F
ORTONVILLE     CLOUDY    27  18  69 CALM      30.29F
MADISON        CLOUDY    30  19  64 W3        30.29F
WILLMAR        CLOUDY    28  21  74 CALM      30.31S
$$
MNZ033>034-036-042>043-049>051-058-059-030900-
   Central Minnesota

CITY           SKY/WX    TMP DP  RH WIND       PRES   REMARKS
ST CLOUD       CLOUDY    29  24  82 CALM      30.28
PAYNESVILLE    CLOUDY    26  21  79 W5        30.30S WCI  21
AITKIN         CLOUDY    28  21  74 W3        30.26S
PINE RIVER     CLOUDY    25  19  80 CALM      30.29S
BRAINERD       CLOUDY    25  20  81 NW3       30.27S
STAPLES        CLOUDY    25  19  80 SW3       30.26F
LONG PRAIRIE   CLOUDY    27  19  74 SW3       30.28S
LITTLE FALLS   CLOUDY    28  21  74 CALM      30.28S
LITCHFIELD     CLOUDY    28  21  74 NW7       30.29F WCI  21
BUFFALO        CLOUDY    28  23  79 CALM      30.30F
MAPLE LAKE     CLOUDY    29  25  84 SW3       30.30S
$$
MNZ037-044-045-052-053-030900-
   East Central Minnesota

CITY           SKY/WX    TMP DP  RH WIND       PRES   REMARKS
PRINCETON      CLOUDY    28  25  86 CALM      30.29S
MORA           CLOUDY    28  23  80 NW3       30.29F
CAMBRIDGE      FLURRIES  30  21  69 CALM      30.28R
RUSH CITY      CLOUDY    28  23  80 W3        30.29S
MOOSE LAKE     CLOUDY    28  23  80 NW3       30.25S
HINCKLEY       CLOUDY    30  27  86 NW3       30.28S
CLOQUET        CLOUDY    27  21  80 W6        30.25S WCI  20
MCGREGOR       CLOUDY    28  25  86 W3        30.27S
$$
MNZ071>073-080-081-089-090-097-098-030900-
   Southwest Minnesota

CITY           SKY/WX    TMP DP  RH WIND       PRES   REMARKS
MONTEVIDEO     CLOUDY    27  27 100 NW8       30.32S WCI  18
GRANITE FALLS  CLOUDY    29  24  81 W6        30.32S WCI  23
CANBY          CLOUDY    28  20  72 CALM      30.30F
REDWOOD FALLS  CLOUDY    28  21  75 W5        30.30  WCI  23
OLIVIA         CLOUDY    30  23  74 NW5       30.29S WCI  25
PIPESTONE      MOCLDY    27  21  80 CALM      30.27R
WINDOM         CLOUDY    27  19  74 CALM      30.29R
JACKSON        CLOUDY    27  21  80 W5        30.30R WCI  21
TRACY          CLOUDY    27  20  73 W5        30.29S WCI  22
SLAYTON        CLOUDY    26  20  79 W9        30.28S WCI  16
$$
MNZ065>067-074>077-082>085-091>093-030900-
   South Central Minnesota

CITY           SKY/WX    TMP DP  RH WIND       PRES   REMARKS
NEW ULM        CLOUDY    28  21  74 NW6       30.30F WCI  22
ST JAMES       CLOUDY    28  25  86 NW6       30.31R WCI  22
GLENCOE        CLOUDY    30  24  79 SW3       30.29F
FARIBAULT      CLOUDY    28  21  74 W3        30.30S
OWATONNA       CLOUDY    28  21  74 NW3       30.29S
WASECA         CLOUDY    30  25  80 CALM      30.30S
ALBERT LEA     CLOUDY    34  27  75 CALM      30.28F
$$
MNZ078>079-086>088-094>096-030900-
   Southeast Minnesota

CITY           SKY/WX    TMP DP  RH WIND       PRES   REMARKS
ROCHESTER      CLOUDY    28  22  78 NW8       30.29S WCI  20
RED WING       CLOUDY    30  21  69 W6        30.29S WCI  24
STANTON        CLOUDY    30  22  69 SW5       30.29S WCI  26
DODGE CENTER   CLOUDY    27  21  80 NW5       30.29R WCI  21
WINONA         CLOUDY    32  23  69 W3        30.32S
AUSTIN         CLOUDY    28  21  74 W3        30.29S
PRESTON        CLOUDY    28  21  76 NW10      30.30S WCI  18
$$
ABBREVIATIONS USED IN REMARKS
   TC - TEMPERATURES IN CELSIUS
  WCI - WIND CHILL INDEX
   HX - HEAT INDEX
  VSB - VISIBILITY
$$



USA.gov is the U.S. government's official web portal to all federal, state and local government web resources and services.